User: anonymous   Login
Location: Pradons
(44.4746°N, 4.3578°E)
Time: 12:29:37
(UTC+00:00)
Language:

Cosmos 1340 Rocket - Orbit

View from above orbital plane
View from above orbital plane
View from above satellite
View from above satellite

Ground track
Ground track

The orbit data is extracted from the following two-line orbital elements,

1 13068U 82013B   20191.19794731 -.00000137  00000-0 -10533-4 0  9995
2 13068  81.2014  25.5628 0020360 220.4386 139.5326 15.07439000 91907
Epoch (UTC): 09 July 2020 04:45:02
Eccentricity: 0.0020360
inclination: 81.2014°
perigee height: 530 km
apogee height: 558 km
right ascension of ascending node: 25.5628°
argument of perigee: 220.4386°
revolutions per day: 15.07439000
mean anomaly at epoch: 139.5326°
orbit number at epoch: 9190

The dashed part of the orbit path shows where the satellite is in the earth's shadow,  

DLR